Regional Weather Roundup
Issued by NWS

Home | Current Version | Previous Version | Graphics & Text | Print | Product List | Glossary On
Versions: 1 2 3 4 5 6 7 8 9 10 11 12 13 14 15 16 17 18 19 20 21 22 23 24 25 26 27 28 29 30 31 32 33 34 35 36 37 38 39 40 41 42 43 44 45 46 47 48 49 50
000
ASUS43 KLOT 270258
RWRIL

ILLINOIS REGIONAL WEATHER ROUNDUP
NATIONAL WEATHER SERVICE CHICAGO/ROMEOVILLE IL
900 PM CST MON JAN 26 2015

NOTE: "FAIR" INDICATES FEW OR NO CLOUDS BELOW 12,000 FEET WITH NO
SIGNIFICANT WEATHER AND/OR OBSTRUCTIONS TO VISIBILITY.

* THESE STATIONS ARE NOT UNDER NWS QUALITY CONTROL. THEY ALSO MAY NOT
  REPORT WEATHER SUCH AS PRECIPITATION OR FOG.

ILZ001-002-007-009-015-016-024-270400-
NORTHWEST ILLINOIS

CITY           SKY/WX    TMP DP  RH WIND       PRES   REMARKS
MOLINE         CLOUDY    32  30  92 CALM      29.87R
$$

ILZ003-004-008-010-011-017-018-270400-
NORTH CENTRAL ILLINOIS

CITY           SKY/WX    TMP DP  RH WIND       PRES   REMARKS
ROCKFORD       NOT AVBL
$$

ILZ005-006-012>014-019>023-270400-
NORTHEAST ILLINOIS

CITY           SKY/WX    TMP DP  RH WIND       PRES   REMARKS
CHICAGO-OHARE  LGT SNOW  25  23  92 S3        29.90S FOG
CHICAGO-MIDWAY NOT AVBL
AURORA         CLOUDY    27  24  89 SE6       29.89S FOG     WCI  20
WAUKEGAN       LGT SNOW  25  24  96 S3        29.90R FOG
DUPAGE AIRPORT CLOUDY    26  24  92 SE3       29.89R FOG
WHEELING       LGT SNOW  26  23  88 S7        29.92S FOG     WCI  18
NORTHERLY ISL    N/A     26  24  92 S5          N/A  WCI  21
$$

LMZ740>746-270400-
SOUTHERN LAKE MICHIGAN

STATION/POSITION SKY/WX   TEMP    WIND        PRES    VSBY  WAVE
                          AIR SEA DIR/SP/G                  HT/PER
                          (F)     (DEG/KT/KT) (MB)    (MI)  (FT/S)
WAUKEGAN HARBOR            26     160/  3/  7   N/A
HARRISON CRIB              26     170/  8/ 10   N/A
BURNHAM HARBOR             26     150/  5/  8   N/A
CALUMET HARBOR             26     130/  3/  5   N/A
MICHIGAN CITY              24     120/  7/  9   N/A
$$

ILZ025>027-034>036-040-047-049-050-058-095>099-270400-
WEST-CENTRAL ILLINOIS

CITY           SKY/WX    TMP DP  RH WIND       PRES   REMARKS
$$

ILZ028>032-037-038-041>044-048-051>054-059>061-270400-
CENTRAL ILLINOIS

CITY           SKY/WX    TMP DP  RH WIND       PRES   REMARKS
BLOOMINGTON    CLOUDY    30  30 100 SW7       29.88F FOG     WCI  23
PEORIA         NOT AVBL
SPRINGFIELD    CLOUDY    32  29  88 S6        29.89F WCI  26
TAYLORVILLE    NOT AVBL
$$

ILZ033-039-045-046-055>057-062-063-270400-
EAST-CENTRAL ILLINOIS

CITY           SKY/WX    TMP DP  RH WIND       PRES   REMARKS
MATTOON        CLOUDY    28  26  92 S5        29.90S FOG     WCI  23
$$

ILZ079-100>102-270400-
SOUTHWEST ILLINOIS

CITY           SKY/WX    TMP DP  RH WIND       PRES   REMARKS
CAHOKIA*       CLOUDY    35  29  78 S3        29.93R
$$

ILZ064>066-069>071-074>076-080>082-084>086-088>090-092>094-270400-
SOUTH-CENTRAL ILLINOIS

CITY           SKY/WX    TMP DP  RH WIND       PRES   REMARKS
CARBONDALE     CLOUDY    35  29  78 S3        29.94R
$$

ILZ067-068-072-073-078-083-087-091-270400-
SOUTHEAST ILLINOIS

CITY           SKY/WX    TMP DP  RH WIND       PRES   REMARKS
$$

ABBREVIATIONS USED IN REMARKS
   TC - TEMPERATURE IN CELSIUS
  WCI - WIND CHILL INDEX
   HX - HEAT INDEX
  VSB - VISIBILITY
$$



USA.gov is the U.S. government's official web portal to all federal, state and local government web resources and services.